カタログに戻る

METEOR 2-17 DEB

運用中PO
NORAD 29066·DEBRIS·🇷🇺 Russia

打ち上げ Jan 30, 1988 から Plesetsk Cosmodrome

Loading…

次のパス (今後24時間)

TLE

経年Source: Space-Track

元期: Sep 11, 2026, 03:26 UTC

1 29066U 88005L   26254.14346844  .00001303  00000-0  78184-3 0  9995
2 29066  82.5473 175.0412 0030393 287.4770  72.3081 14.06091437632307

AllMySatでMETEOR 2-17 DEBをリアルタイム追跡

Download on the App Store